Location: Overspoor
(51.4747°N, 5.6641°E)
Time: 22:13:49
(UTC+02:00)

RS-15 - Pass Details

Date: 04 July 2022
Orbit: 1881 x 2163 km, 64.8° (Epoch: 15 August)

Event Time Altitude Azimuth Distance (km) Brightness Sun altitude
Rises 02:06:21 0° 321° (NW) 5,701 11.2 -15.4°
Reaches altitude 10° 02:10:10 10° 314° (NW) 4,690 10.5 -15.4°
Maximum altitude 02:20:53 38° 253° (WSW) 2,955 8.7 -15.1°
Enters shadow 02:28:48 18° 199° (SSW) 3,947 9.0 -14.9°
